Total_Precipitation_Accumulation
0.06 0.08 0.07 0.07 0.07 0.05 0.05 0.06 0.05 0.05 0.04 0.05 0.04 0.03 0.03 0.03 0.03 0.03 0.03 0.03 0.02 0.02 0.02 0.01 0.01 0.01 0.00 0.01 0.01 0.00 0.00 0.01 0.00 0.00 0.00 0.00 0.00 0.00 0.00 0.00 0.00 0.00 0.00 0.00 0.00 0.00 0.00 0.00 0.00 0.00 0.00 0.00 0.00 0.00 0.00 0.00 0.00 0.00 0.00 0.00 0.00 0.00 0.00 0.00 0.00 0.00 0.00 0.00 0.00 0.00 0.00 0.00 0.00 0.00 0.00 0.00 0.00 0.00 0.01 0.03 0.03 0.04 0.10 0.12 0.11 0.16 0.05 0.22
0.06 0.06 0.07 0.06 0.05 0.06 0.05 0.05 0.05 0.05 0.04 0.03 0.04 0.03 0.03 0.03 0.03 0.02 0.03 0.03 0.03 0.03 0.02 0.03 0.01 0.00 0.01 0.01 0.00 0.00 0.00 0.00 0.00 0.00 0.00 0.00 0.00 0.00 0.00 0.00 0.00 0.00 0.00 0.00 0.00 0.00 0.00 0.00 0.00 0.00 0.00 0.00 0.00 0.00 0.00 0.00 0.00 0.00 0.00 0.00 0.00 0.00 0.00 0.00 0.00 0.00 0.00 0.00 0.00 0.00 0.00 0.00 0.00 0.00 0.00 0.05 0.01 0.00 0.01 0.01 0.03 0.17 0.14 0.17 0.22 0.14 0.18 0.18
0.06 0.06 0.06 0.05 0.04 0.07 0.06 0.04 0.04 0.03 0.03 0.02 0.02 0.04 0.03 0.03 0.03 0.03 0.02 0.03 0.03 0.03 0.03 0.02 0.02 0.01 0.01 0.01 0.00 0.00 0.00 0.00 0.00 0.00 0.00 0.00 0.00 0.00 0.00 0.00 0.00 0.00 0.00 0.00 0.00 0.00 0.00 0.00 0.00 0.00 0.00 0.00 0.00 0.00 0.00 0.00 0.00 0.00 0.00 0.00 0.00 0.00 0.00 0.00 0.00 0.00 0.00 0.00 0.00 0.00 0.00 0.00 0.00 0.00 0.00 0.01 0.04 0.00 0.02 0.06 0.07 0.19 0.43 0.20 0.24 0.22 0.24 0.31
0.07 0.06 0.05 0.04 0.04 0.04 0.04 0.05 0.03 0.03 0.04 0.04 0.03 0.03 0.04 0.03 0.03 0.03 0.03 0.03 0.02 0.02 0.02 0.02 0.01 0.01 0.01 0.00 0.00 0.00 0.00 0.00 0.00 0.00 0.00 0.00 0.00 0.00 0.00 0.00 0.00 0.00 0.00 0.00 0.00 0.00 0.00 0.00 0.00 0.00 0.00 0.00 0.00 0.00 0.00 0.00 0.00 0.00 0.00 0.00 0.00 0.00 0.00 0.00 0.00 0.00 0.00 0.00 0.00 0.00 0.00 0.00 0.00 0.00 0.00 0.00 0.04 0.07 0.17 0.01 0.03 0.21 0.36 0.30 0.14 0.14 0.25 0.39
0.05 0.06 0.04 0.04 0.04 0.05 0.05 0.03 0.03 0.04 0.04 0.05 0.04 0.04 0.06 0.03 0.04 0.03 0.03 0.02 0.02 0.01 0.02 0.01 0.01 0.00 0.00 0.00 0.00 0.00 0.00 0.00 0.00 0.00 0.00 0.00 0.00 0.00 0.00 0.00 0.00 0.00 0.00 0.00 0.00 0.00 0.00 0.00 0.00 0.00 0.00 0.00 0.00 0.00 0.00 0.00 0.00 0.00 0.00 0.00 0.00 0.00 0.00 0.00 0.00 0.00 0.00 0.00 0.00 0.00 0.00 0.00 0.00 0.00 0.00 0.00 0.00 0.03 0.03 0.01 0.01 0.06 0.13 0.16 0.19 0.23 0.24 0.36
0.05 0.05 0.05 0.05 0.04 0.04 0.04 0.04 0.03 0.04 0.05 0.04 0.06 0.05 0.04 0.04 0.04 0.03 0.03 0.02 0.02 0.02 0.01 0.01 0.01 0.00 0.00 0.00 0.00 0.00 0.00 0.00 0.00 0.00 0.00 0.00 0.00 0.00 0.00 0.00 0.00 0.00 0.00 0.00 0.00 0.00 0.00 0.00 0.00 0.00 0.00 0.00 0.00 0.00 0.00 0.00 0.00 0.00 0.00 0.00 0.00 0.00 0.00 0.00 0.00 0.00 0.00 0.00 0.00 0.00 0.00 0.00 0.00 0.00 0.00 0.00 0.01 0.01 0.00 0.02 0.05 0.11 0.11 0.14 0.17 0.35 0.32 0.49
0.07 0.07 0.05 0.04 0.06 0.06 0.03 0.06 0.04 0.04 0.05 0.06 0.04 0.05 0.04 0.04 0.03 0.02 0.02 0.02 0.02 0.02 0.01 0.00 0.00 0.00 0.00 0.00 0.00 0.00 0.00 0.00 0.00 0.00 0.00 0.00 0.00 0.00 0.00 0.00 0.00 0.00 0.00 0.00 0.00 0.00 0.00 0.00 0.00 0.00 0.00 0.00 0.00 0.00 0.00 0.00 0.00 0.00 0.00 0.00 0.00 0.00 0.00 0.00 0.00 0.00 0.00 0.00 0.00 0.00 0.00 0.00 0.00 0.00 0.00 0.00 0.00 0.00 0.01 0.02 0.03 0.09 0.13 0.14 0.14 0.26 0.42 0.84
0.04 0.06 0.04 0.04 0.03 0.03 0.04 0.05 0.06 0.04 0.04 0.05 0.04 0.04 0.05 0.05 0.04 0.03 0.02 0.02 0.02 0.01 0.01 0.00 0.00 0.00 0.00 0.00 0.00 0.00 0.00 0.00 0.00 0.00 0.00 0.00 0.00 0.00 0.00 0.00 0.00 0.00 0.00 0.00 0.00 0.00 0.00 0.00 0.00 0.00 0.00 0.00 0.00 0.00 0.00 0.00 0.00 0.00 0.00 0.00 0.00 0.00 0.00 0.00 0.00 0.00 0.00 0.00 0.00 0.00 0.00 0.00 0.00 0.00 0.00 0.00 0.00 0.01 0.00 0.01 0.03 0.05 0.14 0.19 0.16 0.19 0.46 0.73
0.05 0.04 0.06 0.05 0.05 0.04 0.06 0.05 0.04 0.04 0.04 0.06 0.06 0.06 0.07 0.06 0.07 0.05 0.02 0.05 0.02 0.01 0.01 0.01 0.00 0.00 0.00 0.00 0.00 0.00 0.00 0.00 0.00 0.00 0.00 0.00 0.00 0.00 0.00 0.00 0.00 0.00 0.00 0.00 0.00 0.00 0.00 0.00 0.00 0.00 0.00 0.00 0.00 0.00 0.00 0.00 0.00 0.00 0.00 0.00 0.00 0.00 0.00 0.00 0.00 0.00 0.00 0.00 0.00 0.00 0.00 0.00 0.00 0.00 0.00 0.02 0.02 0.01 0.01 0.01 0.03 0.07 0.19 0.21 0.22 0.20 0.30 0.96
0.04 0.05 0.04 0.06 0.05 0.06 0.05 0.05 0.04 0.03 0.04 0.04 0.06 0.05 0.06 0.05 0.03 0.04 0.03 0.02 0.01 0.01 0.01 0.00 0.00 0.00 0.00 0.00 0.00 0.00 0.00 0.00 0.00 0.00 0.00 0.00 0.00 0.00 0.00 0.00 0.00 0.00 0.00 0.00 0.00 0.00 0.00 0.00 0.00 0.00 0.00 0.00 0.00 0.00 0.00 0.00 0.00 0.00 0.00 0.00 0.00 0.00 0.00 0.00 0.00 0.00 0.00 0.00 0.00 0.00 0.00 0.00 0.00 0.00 0.01 0.03 0.02 0.03 0.02 0.03 0.08 0.07 0.16 0.21 0.23 0.33 0.56 0.48
0.07 0.07 0.05 0.06 0.06 0.05 0.03 0.04 0.09 0.05 0.08 0.03 0.04 0.05 0.04 0.05 0.06 0.04 0.04 0.03 0.02 0.01 0.01 0.00 0.01 0.00 0.01 0.00 0.00 0.00 0.00 0.00 0.00 0.00 0.00 0.00 0.00 0.00 0.00 0.00 0.00 0.00 0.00 0.00 0.00 0.00 0.00 0.00 0.00 0.00 0.00 0.00 0.00 0.00 0.00 0.00 0.00 0.00 0.00 0.00 0.00 0.00 0.00 0.00 0.00 0.00 0.00 0.00 0.00 0.00 0.00 0.00 0.00 0.00 0.00 0.03 0.07 0.02 0.06 0.06 0.10 0.14 0.13 0.19 0.35 0.34 0.41 0.98
0.03 0.04 0.14 0.04 0.05 0.05 0.05 0.06 0.05 0.09 0.04 0.05 0.04 0.04 0.05 0.04 0.05 0.04 0.04 0.08 0.02 0.06 0.01 0.00 0.01 0.04 0.00 0.01 0.01 0.00 0.00 0.00 0.00 0.00 0.00 0.00 0.00 0.00 0.00 0.00 0.00 0.00 0.00 0.00 0.00 0.00 0.00 0.00 0.00 0.00 0.00 0.00 0.00 0.00 0.00 0.00 0.00 0.00 0.00 0.00 0.00 0.00 0.00 0.00 0.00 0.00 0.00 0.00 0.00 0.00 0.00 0.00 0.00 0.01 0.00 0.03 0.03 0.06 0.06 0.06 0.10 0.15 0.21 0.22 0.39 0.44 0.55 0.55
0.09 0.06 0.08 0.05 0.04 0.05 0.04 0.06 0.09 0.04 0.05 0.05 0.04 0.04 0.05 0.05 0.05 0.09 0.05 0.03 0.02 0.02 0.02 0.01 0.00 0.02 0.03 0.02 0.00 0.00 0.00 0.00 0.00 0.00 0.00 0.00 0.00 0.00 0.00 0.00 0.00 0.00 0.00 0.00 0.00 0.00 0.00 0.00 0.00 0.00 0.00 0.00 0.00 0.00 0.00 0.00 0.00 0.00 0.00 0.00 0.00 0.00 0.00 0.00 0.00 0.00 0.00 0.00 0.00 0.00 0.00 0.00 0.00 0.00 0.02 0.07 0.02 0.05 0.10 0.15 0.16 0.17 0.22 0.20 0.19 0.49 0.57 0.59
0.06 0.06 0.06 0.10 0.06 0.05 0.08 0.08 0.04 0.08 0.04 0.03 0.05 0.03 0.03 0.04 0.06 0.06 0.12 0.03 0.04 0.04 0.05 0.02 0.04 0.02 0.02 0.00 0.00 0.00 0.00 0.00 0.00 0.00 0.00 0.00 0.00 0.00 0.00 0.00 0.00 0.00 0.00 0.00 0.00 0.00 0.00 0.00 0.00 0.00 0.00 0.00 0.00 0.00 0.00 0.00 0.00 0.00 0.00 0.00 0.00 0.00 0.00 0.00 0.00 0.00 0.00 0.00 0.00 0.00 0.00 0.00 0.00 0.01 0.09 0.44 0.02 0.04 0.04 0.11 0.17 0.13 0.21 0.20 0.14 0.20 0.35 0.40
0.07 0.05 0.07 0.05 0.04 0.17 0.08 0.19 0.07 0.04 0.07 0.07 0.05 0.04 0.04 0.06 0.06 0.07 0.10 0.09 0.09 0.05 0.04 0.06 0.02 0.03 0.05 0.00 0.00 0.00 0.00 0.00 0.00 0.00 0.00 0.00 0.00 0.00 0.00 0.00 0.00 0.00 0.00 0.00 0.00 0.00 0.00 0.00 0.00 0.00 0.00 0.00 0.00 0.00 0.00 0.00 0.00 0.00 0.00 0.00 0.00 0.00 0.00 0.00 0.00 0.00 0.00 0.00 0.00 0.00 0.00 0.00 0.00 0.04 0.02 0.09 0.16 0.26 0.18 0.11 0.21 0.14 0.15 0.18 0.15 0.22 0.29 0.46
0.07 0.09 0.08 0.05 0.04 0.03 0.16 0.08 0.04 0.09 0.04 0.05 0.05 0.03 0.05 0.05 0.07 0.07 0.08 0.05 0.06 0.04 0.03 0.02 0.01 0.01 0.01 0.00 0.00 0.00 0.00 0.00 0.00 0.00 0.00 0.00 0.00 0.00 0.00 0.00 0.00 0.00 0.00 0.00 0.00 0.00 0.00 0.00 0.00 0.00 0.00 0.00 0.00 0.00 0.00 0.00 0.00 0.00 0.00 0.00 0.00 0.00 0.00 0.00 0.00 0.00 0.00 0.00 0.00 0.00 0.00 0.00 0.06 0.05 0.09 0.38 0.31 0.26 0.17 0.22 0.17 0.22 0.15 0.18 0.22 0.15 0.20 0.37
0.09 0.06 0.07 0.07 0.06 0.04 0.08 0.04 0.17 0.06 0.05 0.03 0.05 0.05 0.09 0.06 0.06 0.07 0.10 0.05 0.09 0.05 0.08 0.01 0.02 0.03 0.04 0.00 0.00 0.00 0.00 0.00 0.00 0.00 0.00 0.00 0.00 0.00 0.00 0.00 0.00 0.00 0.00 0.00 0.00 0.00 0.00 0.00 0.00 0.00 0.00 0.00 0.00 0.00 0.00 0.00 0.00 0.00 0.00 0.00 0.00 0.00 0.00 0.00 0.00 0.00 0.00 0.00 0.00 0.00 0.00 0.00 0.03 0.09 0.08 0.28 1.39 1.22 0.47 0.29 0.37 0.30 0.18 0.16 0.24 0.22 0.18 0.22
0.09 0.09 0.14 0.12 0.09 0.08 0.12 0.10 0.10 0.05 0.13 0.06 0.05 0.05 0.09 0.06 0.07 0.05 0.07 0.10 0.09 0.06 0.03 0.01 0.01 0.08 0.01 0.00 0.00 0.00 0.00 0.00 0.00 0.00 0.00 0.00 0.00 0.00 0.00 0.00 0.00 0.00 0.00 0.00 0.00 0.00 0.00 0.00 0.00 0.00 0.00 0.00 0.00 0.00 0.00 0.00 0.00 0.00 0.00 0.00 0.00 0.00 0.00 0.00 0.00 0.00 0.00 0.00 0.00 0.00 0.00 0.01 0.02 0.10 0.09 0.10 0.44 0.31 0.07 0.25 0.99 0.79 0.72 0.38 0.46 0.48 0.26 0.35
0.12 0.17 0.12 0.15 0.06 0.13 0.09 0.09 0.12 0.08 0.08 0.09 0.10 0.10 0.09 0.20 0.10 0.07 0.11 0.17 0.16 0.27 0.14 0.11 0.06 0.03 0.01 0.00 0.00 0.00 0.00 0.00 0.00 0.00 0.00 0.00 0.00 0.00 0.00 0.00 0.00 0.00 0.00 0.00 0.00 0.00 0.00 0.00 0.00 0.00 0.00 0.00 0.00 0.00 0.00 0.00 0.00 0.00 0.00 0.00 0.00 0.00 0.00 0.00 0.00 0.00 0.00 0.00 0.00 0.00 0.00 0.01 0.01 0.03 0.06 0.17 0.05 0.17 0.26 0.28 0.19 0.33 0.76 0.60 0.32 0.26 0.38 0.61
0.14 0.10 0.15 0.11 0.12 0.06 0.10 0.09 0.06 0.06 0.11 0.10 0.09 0.10 0.11 0.17 0.18 0.14 0.10 0.32 0.17 0.04 0.01 0.00 0.00 0.00 0.00 0.00 0.00 0.00 0.00 0.00 0.00 0.00 0.00 0.00 0.00 0.00 0.00 0.00 0.00 0.00 0.00 0.00 0.00 0.00 0.00 0.00 0.00 0.00 0.00 0.00 0.00 0.00 0.00 0.00 0.00 0.00 0.00 0.00 0.00 0.00 0.00 0.00 0.00 0.00 0.00 0.00 0.00 0.00 0.00 0.00 0.00 0.00 0.03 0.02 0.17 0.10 0.18 0.50 0.49 0.47 0.16 0.34 0.57 0.93 0.92 1.20
0.13 0.14 0.18 0.10 0.11 0.13 0.09 0.06 0.15 0.11 0.09 0.22 0.14 0.19 0.22 0.07 0.05 0.09 0.08 0.05 0.07 0.03 0.01 0.06 0.01 0.00 0.00 0.00 0.00 0.00 0.00 0.00 0.00 0.00 0.00 0.00 0.00 0.00 0.00 0.00 0.00 0.00 0.00 0.00 0.00 0.00 0.00 0.00 0.00 0.00 0.00 0.00 0.00 0.00 0.00 0.00 0.00 0.00 0.00 0.00 0.00 0.00 0.00 0.00 0.00 0.00 0.00 0.00 0.00 0.00 0.00 0.00 0.00 0.01 0.04 0.02 0.18 0.28 0.75 0.61 0.56 0.31 0.21 0.19 0.48 1.50 2.20 1.79
0.19 0.17 0.14 0.24 0.18 0.08 0.13 0.10 0.08 0.33 0.19 0.22 0.29 0.15 0.08 0.08 0.13 0.12 0.05 0.08 0.03 0.01 0.01 0.01 0.01 0.00 0.00 0.00 0.00 0.00 0.00 0.00 0.00 0.00 0.00 0.00 0.00 0.00 0.00 0.00 0.00 0.00 0.00 0.00 0.00 0.00 0.00 0.00 0.00 0.00 0.00 0.00 0.00 0.00 0.00 0.00 0.00 0.00 0.00 0.00 0.00 0.00 0.00 0.00 0.00 0.00 0.00 0.00 0.00 0.00 0.00 0.00 0.01 0.01 0.10 0.05 0.07 0.04 0.08 0.14 0.13 0.18 0.53 0.46 0.53 0.79 1.35 1.35
0.16 0.25 0.34 0.16 0.17 0.14 0.09 0.51 0.19 0.22 0.37 0.22 0.18 0.18 0.07 0.07 0.08 0.05 0.03 0.07 0.07 0.03 0.02 0.01 0.01 0.00 0.00 0.00 0.00 0.00 0.00 0.00 0.00 0.00 0.00 0.00 0.00 0.00 0.00 0.00 0.00 0.00 0.00 0.00 0.00 0.00 0.00 0.00 0.00 0.00 0.00 0.00 0.00 0.00 0.00 0.00 0.00 0.00 0.00 0.01 0.00 0.00 0.00 0.03 0.00 0.00 0.00 0.00 0.00 0.00 0.00 0.00 0.00 0.02 0.04 0.12 0.11 0.10 0.12 0.16 0.29 0.11 0.10 0.40 0.94 0.78 0.76 0.44
0.34 0.22 0.24 0.16 0.13 0.28 0.19 0.22 0.18 0.21 0.35 0.11 0.13 0.23 0.12 0.10 0.11 0.08 0.11 0.07 0.05 0.02 0.02 0.01 0.00 0.00 0.00 0.00 0.00 0.00 0.00 0.00 0.00 0.00 0.00 0.00 0.00 0.00 0.00 0.00 0.00 0.00 0.00 0.00 0.00 0.00 0.01 0.01 0.00 0.00 0.00 0.00 0.00 0.00 0.00 0.00 0.00 0.00 0.00 0.00 0.00 0.00 0.00 0.00 0.07 0.00 0.00 0.00 0.00 0.00 0.01 0.01 0.01 0.03 0.10 0.21 0.26 0.23 0.13 0.22 0.52 0.74 0.97 0.85 0.92 1.02 1.04 0.99
0.22 0.25 0.24 0.25 0.30 0.18 0.33 0.33 0.14 0.17 0.08 0.34 0.25 0.22 0.23 0.20 0.17 0.07 0.05 0.11 0.10 0.02 0.00 0.01 0.00 0.01 0.00 0.00 0.00 0.00 0.00 0.00 0.00 0.00 0.00 0.00 0.00 0.00 0.00 0.00 0.00 0.00 0.00 0.00 0.00 0.00 0.01 0.00 0.00 0.00 0.00 0.00 0.00 0.00 0.00 0.00 0.00 0.00 0.00 0.00 0.00 0.00 0.00 0.00 0.00 0.00 0.00 0.02 0.00 0.00 0.04 0.06 0.01 0.02 0.11 0.03 0.08 0.13 0.41 0.70 0.23 0.27 0.47 0.38 0.57 0.97 0.75 0.76
0.18 0.24 0.27 0.34 0.42 0.31 0.37 0.33 0.22 0.06 0.18 0.37 0.23 0.21 0.26 0.19 0.36 0.14 0.15 0.22 0.18 0.01 0.01 0.00 0.00 0.01 0.00 0.00 0.00 0.00 0.00 0.00 0.00 0.00 0.00 0.00 0.00 0.00 0.00 0.00 0.00 0.00 0.00 0.00 0.00 0.00 0.01 0.00 0.00 0.00 0.00 0.00 0.00 0.00 0.00 0.00 0.00 0.00 0.02 0.00 0.00 0.00 0.00 0.00 0.00 0.00 0.01 0.05 0.06 0.00 0.02 0.05 0.01 0.03 0.09 0.08 0.01 0.05 0.31 0.27 0.21 0.27 0.27 0.30 0.97 0.57 0.55 0.69
0.49 0.26 0.22 0.35 0.26 0.58 0.47 0.32 0.49 0.22 0.23 0.23 0.51 0.39 0.42 0.67 0.28 0.21 0.38 0.37 0.20 0.03 0.01 0.02 0.00 0.00 0.00 0.00 0.00 0.00 0.01 0.02 0.00 0.00 0.00 0.00 0.00 0.00 0.00 0.00 0.00 0.00 0.00 0.00 0.00 0.00 0.00 0.00 0.00 0.00 0.00 0.00 0.00 0.00 0.00 0.00 0.01 0.02 0.02 0.00 0.00 0.00 0.00 0.00 0.00 0.00 0.03 0.00 0.04 0.00 0.00 0.10 0.06 0.06 0.00 0.02 0.10 0.03 0.04 0.13 0.12 0.22 0.12 0.40 0.42 0.77 0.68 0.52
0.21 0.26 0.18 0.33 0.36 0.43 0.59 0.39 0.26 0.32 0.31 0.62 0.38 0.36 0.22 0.19 0.27 0.37 0.16 0.33 0.04 0.00 0.04 0.05 0.00 0.01 0.00 0.00 0.00 0.00 0.01 0.00 0.01 0.00 0.00 0.00 0.00 0.00 0.00 0.00 0.00 0.00 0.00 0.00 0.02 0.01 0.00 0.00 0.00 0.00 0.00 0.00 0.00 0.00 0.00 0.00 0.00 0.04 0.00 0.00 0.00 0.00 0.03 0.00 0.00 0.02 0.08 0.01 0.09 0.01 0.00 0.01 0.06 0.07 0.00 0.03 0.06 0.07 0.05 0.03 0.11 0.10 0.21 0.35 0.39 0.79 0.51 0.64
0.39 0.24 0.24 0.30 0.30 0.44 0.43 0.47 0.25 0.29 0.85 0.45 0.29 0.27 0.26 0.30 0.24 0.29 0.58 0.22 0.17 0.01 0.01 0.12 0.00 0.00 0.00 0.00 0.00 0.00 0.00 0.00 0.01 0.01 0.00 0.00 0.00 0.00 0.00 0.00 0.00 0.00 0.00 0.00 0.02 0.01 0.00 0.00 0.00 0.00 0.00 0.00 0.00 0.00 0.00 0.00 0.01 0.00 0.00 0.00 0.00 0.00 0.00 0.00 0.01 0.00 0.06 0.01 0.04 0.04 0.06 0.03 0.04 0.07 0.02 0.03 0.05 0.06 0.08 0.07 0.08 0.15 0.23 0.38 0.44 0.42 0.51 0.90
0.19 0.15 0.22 0.15 0.28 0.29 0.45 0.31 0.15 0.37 0.36 0.58 0.46 0.36 0.74 0.36 0.59 0.26 0.47 0.06 0.02 0.23 0.00 0.02 0.00 0.00 0.00 0.00 0.00 0.00 0.00 0.00 0.00 0.00 0.00 0.00 0.00 0.00 0.00 0.00 0.00 0.00 0.00 0.00 0.00 0.00 0.00 0.00 0.00 0.00 0.00 0.00 0.00 0.00 0.00 0.00 0.00 0.00 0.00 0.00 0.01 0.00 0.01 0.00 0.00 0.04 0.04 0.02 0.02 0.02 0.04 0.00 0.09 0.15 0.08 0.16 0.06 0.08 0.03 0.14 0.06 0.20 0.20 0.24 0.23 0.33 0.52 0.51
0.38 0.34 0.18 0.19 0.46 0.36 0.27 0.25 0.29 0.35 0.36 0.24 0.29 0.41 0.99 0.57 0.47 0.36 0.14 0.19 0.01 0.05 0.00 0.00 0.00 0.00 0.00 0.00 0.05 0.00 0.00 0.00 0.00 0.00 0.00 0.00 0.00 0.00 0.00 0.00 0.00 0.00 0.00 0.01 0.00 0.00 0.00 0.00 0.00 0.00 0.00 0.00 0.00 0.00 0.00 0.00 0.00 0.00 0.00 0.01 0.00 0.01 0.01 0.01 0.05 0.04 0.14 0.01 0.03 0.01 0.02 0.06 0.11 0.21 0.08 0.12 0.07 0.06 0.08 0.13 0.14 0.09 0.14 0.17 0.27 0.43 0.45 0.44
0.17 0.11 0.16 0.33 0.37 0.50 0.29 0.32 0.28 0.15 0.20 0.25 0.31 0.49 0.91 0.56 0.20 0.36 0.10 0.04 0.18 0.24 0.20 0.07 0.01 0.01 0.00 0.00 0.00 0.00 0.03 0.00 0.00 0.00 0.01 0.00 0.01 0.00 0.00 0.01 0.00 0.00 0.03 0.00 0.02 0.00 0.00 0.00 0.00 0.00 0.00 0.00 0.00 0.00 0.00 0.00 0.00 0.00 0.00 0.01 0.12 0.16 0.02 0.12 0.08 0.06 0.04 0.03 0.11 0.01 0.03 0.06 0.01 0.25 0.13 0.12 0.06 0.06 0.09 0.10 0.13 0.11 0.13 0.14 0.19 0.23 0.28 0.41
0.15 0.13 0.22 0.37 0.37 0.45 0.33 0.30 0.25 0.30 0.30 0.24 0.45 0.76 0.64 0.47 0.13 0.07 0.20 0.21 0.82 0.37 0.17 0.07 0.08 0.01 0.03 0.00 0.01 0.00 0.00 0.04 0.01 0.00 0.00 0.00 0.01 0.00 0.00 0.00 0.00 0.00 0.05 0.06 0.02 0.00 0.00 0.00 0.00 0.00 0.00 0.00 0.00 0.00 0.02 0.01 0.00 0.00 0.01 0.09 0.08 0.14 0.06 0.02 0.09 0.04 0.09 0.04 0.07 0.10 0.05 0.04 0.27 0.39 0.18 0.13 0.16 0.11 0.23 0.25 0.15 0.12 0.15 0.26 0.29 0.40 0.38 0.59
0.21 0.18 0.43 0.22 0.35 0.23 0.31 0.28 0.23 0.27 0.56 0.38 0.72 0.63 0.95 0.24 0.14 0.18 0.20 0.20 0.92 0.28 0.18 0.06 0.05 0.05 0.01 0.05 0.01 0.00 0.01 0.00 0.00 0.03 0.00 0.01 0.00 0.04 0.03 0.00 0.00 0.01 0.00 0.01 0.00 0.03 0.02 0.05 0.01 0.00 0.02 0.00 0.00 0.00 0.00 0.03 0.02 0.01 0.00 0.01 0.13 0.11 0.09 0.02 0.08 0.05 0.02 0.16 0.11 0.02 0.02 0.08 0.14 0.89 0.24 0.17 0.20 0.15 0.09 0.11 0.12 0.16 0.18 0.26 0.36 0.30 0.59 1.32
0.25 0.36 0.25 0.26 0.33 0.30 0.23 0.28 0.24 0.35 0.42 0.55 0.50 0.65 0.37 0.10 0.24 0.37 0.23 0.19 0.35 0.29 0.18 0.02 0.05 0.03 0.07 0.00 0.08 0.01 0.00 0.13 0.00 0.00 0.02 0.00 0.07 0.02 0.02 0.02 0.00 0.00 0.00 0.02 0.06 0.01 0.00 0.04 0.07 0.00 0.01 0.00 0.00 0.00 0.00 0.00 0.00 0.01 0.01 0.00 0.06 0.04 0.02 0.12 0.34 0.04 0.08 0.08 0.03 0.07 0.07 0.24 0.73 0.75 0.31 0.22 0.23 0.26 0.20 0.13 0.10 0.23 0.30 0.26 0.40 0.54 0.96 0.57
0.37 0.39 0.32 0.37 0.54 0.27 0.20 0.28 0.17 0.25 0.35 0.39 0.52 0.33 0.26 0.25 0.38 0.28 0.43 0.45 0.31 0.30 0.17 0.03 0.03 0.11 0.05 0.05 0.00 0.01 0.03 0.06 0.03 0.03 0.04 0.00 0.00 0.02 0.00 0.00 0.00 0.00 0.07 0.00 0.16 0.05 0.01 0.09 0.01 0.00 0.00 0.00 0.00 0.00 0.00 0.00 0.21 0.25 0.00 0.07 0.06 0.02 0.02 0.04 0.00 0.01 0.00 0.00 0.02 0.01 0.17 0.16 0.13 0.62 0.35 0.22 0.10 0.18 0.24 0.22 0.22 0.32 0.30 0.25 0.51 0.47 0.53 0.89
0.46 0.31 0.49 0.38 0.39 0.16 0.18 0.22 0.20 0.31 0.31 0.35 0.38 0.20 0.11 0.20 0.14 0.25 0.36 0.50 0.33 0.21 0.23 0.18 0.14 0.07 0.11 0.06 0.06 0.01 0.08 0.01 0.16 0.01 0.18 0.01 0.06 0.00 0.00 0.01 0.00 0.01 0.00 0.00 0.07 0.01 0.18 0.26 0.01 0.00 0.01 0.00 0.00 0.00 0.00 0.01 0.00 0.03 0.02 0.04 0.00 0.00 0.01 0.02 0.12 0.09 0.08 0.03 0.07 0.01 0.04 0.27 0.06 0.61 0.55 0.33 0.33 0.26 0.35 0.42 0.45 0.41 0.48 0.81 1.06 1.20 1.33 1.07
0.34 0.43 0.42 0.56 0.19 0.07 0.18 0.39 0.19 0.24 0.21 0.28 0.25 0.18 0.04 0.14 0.18 0.25 0.31 0.37 0.18 0.15 0.18 0.24 0.10 0.01 0.06 0.05 0.05 0.03 0.13 0.04 0.33 0.06 0.16 0.02 0.31 0.00 0.02 0.04 0.01 0.00 0.00 0.01 0.01 0.06 0.00 0.12 0.06 0.01 0.00 0.00 0.00 0.00 0.00 0.00 0.00 0.01 0.05 0.04 0.02 0.09 0.10 0.06 0.00 0.02 0.02 0.01 0.13 0.02 0.12 0.09 0.13 0.67 0.47 0.37 0.21 0.32 0.39 0.44 0.41 0.38 0.59 0.47 0.49 1.18 0.61 0.85
0.27 0.28 0.42 0.24 0.11 0.08 0.14 0.26 0.13 0.18 0.29 0.31 0.27 0.34 0.23 0.08 0.15 0.26 0.28 0.22 0.08 0.18 0.28 0.21 0.26 0.04 0.08 0.04 0.03 0.03 0.07 0.15 0.16 0.20 0.21 0.19 0.15 0.22 0.11 0.00 0.09 0.00 0.00 0.00 0.02 0.02 0.00 0.03 0.05 0.00 0.00 0.03 0.00 0.00 0.02 0.06 0.01 0.00 0.00 0.00 0.00 0.01 0.03 0.15 0.11 0.28 0.03 0.27 0.03 0.13 0.11 0.31 0.15 0.40 0.07 0.15 0.08 0.21 0.35 0.41 0.39 0.33 0.36 0.49 0.40 0.69 0.64 0.50
0.30 0.31 0.50 0.09 0.04 0.04 0.15 0.21 0.20 0.18 0.33 0.21 0.14 0.13 0.13 0.18 0.21 0.20 0.19 0.13 0.16 0.15 0.28 0.18 0.05 0.09 0.02 0.02 0.01 0.05 0.06 0.02 0.12 0.23 0.11 0.41 0.10 0.09 0.09 0.00 0.07 0.02 0.00 0.00 0.01 0.01 0.05 0.00 0.15 0.09 0.00 0.00 0.12 0.00 0.03 0.01 0.09 0.04 0.01 0.01 0.03 0.02 0.02 0.02 0.13 0.06 0.16 0.20 0.11 0.16 0.20 0.38 0.46 0.18 0.18 0.22 0.19 0.37 0.57 0.61 0.63 0.38 0.35 0.35 0.31 0.61 0.44 0.44
0.15 0.76 0.64 0.08 0.05 0.01 0.01 0.08 0.14 0.18 0.15 0.11 0.09 0.11 0.11 0.20 0.21 0.17 0.11 0.11 0.08 0.05 0.07 0.08 0.14 0.21 0.09 0.01 0.01 0.00 0.04 0.01 0.06 0.22 0.17 0.15 0.15 0.42 0.00 0.08 0.00 0.05 0.00 0.01 0.01 0.17 0.02 0.00 0.02 0.07 0.02 0.02 0.02 0.01 0.01 0.01 0.03 0.06 0.07 0.13 0.11 0.11 0.17 0.31 0.30 0.01 0.09 0.11 0.15 0.19 0.25 0.43 0.25 0.13 0.25 0.26 0.16 0.18 0.26 0.47 0.76 0.60 0.32 0.25 0.37 1.33 1.34 1.14
0.43 0.83 1.18 0.25 0.04 0.00 0.02 0.27 0.18 0.15 0.07 0.14 0.17 0.06 0.15 0.12 0.18 0.14 0.10 0.10 0.05 0.16 0.02 0.01 0.02 0.04 0.02 0.01 0.01 0.01 0.01 0.01 0.11 0.13 0.06 0.33 0.28 0.14 0.14 0.00 0.01 0.03 0.06 0.07 0.07 0.15 0.04 0.06 0.07 0.02 0.10 0.18 0.02 0.03 0.00 0.01 0.00 0.03 0.01 0.11 0.02 0.09 0.10 0.17 0.24 0.25 0.13 0.09 0.08 0.20 0.20 0.48 0.28 0.21 0.45 0.74 0.36 0.29 0.41 0.25 0.27 0.34 0.35 0.72 1.11 1.00 1.20 1.25
0.46 1.24 1.30 0.34 0.05 0.01 0.17 0.22 0.08 0.04 0.09 0.06 0.03 0.04 0.07 0.16 0.15 0.11 0.15 0.14 0.15 0.05 0.02 0.02 0.05 0.01 0.01 0.02 0.01 0.01 0.00 0.05 0.03 0.12 0.23 0.16 0.34 0.16 0.04 0.02 0.03 0.06 0.00 0.09 0.02 0.06 0.00 0.01 0.01 0.02 0.10 0.05 0.01 0.00 0.00 0.00 0.00 0.00 0.00 0.00 0.01 0.11 0.09 0.15 0.27 0.31 0.28 0.21 0.09 0.10 0.16 0.73 0.24 0.27 0.77 1.21 0.67 0.47 0.30 0.37 0.24 0.18 0.17 0.48 0.50 0.32 0.24 0.57
0.77 1.78 1.32 0.38 0.07 0.09 0.31 0.16 0.11 0.08 0.10 0.06 0.12 0.13 0.10 0.17 0.18 0.20 0.21 0.18 0.16 0.06 0.12 0.08 0.01 0.00 0.01 0.01 0.01 0.01 0.04 0.04 0.01 0.02 0.04 0.07 0.27 0.06 0.02 0.03 0.01 0.10 0.02 0.41 0.16 0.16 0.28 0.12 0.03 0.12 0.07 0.15 0.19 0.02 0.01 0.00 0.00 0.04 0.04 0.05 0.03 0.01 0.02 0.09 0.10 0.13 0.13 0.17 0.21 0.23 0.31 0.44 0.76 0.65 0.64 0.92 0.54 0.25 0.60 0.49 0.38 0.56 0.45 0.61 0.27 0.94 0.84 0.72
1.69 1.40 1.01 0.88 0.06 0.11 0.45 0.33 0.40 0.12 0.23 0.30 0.22 0.22 0.23 0.21 0.19 0.22 0.28 0.40 0.17 0.04 0.06 0.04 0.02 0.02 0.01 0.01 0.04 0.02 0.00 0.02 0.09 0.01 0.01 0.21 0.35 0.00 0.00 0.02 0.01 0.11 0.14 0.08 0.03 0.09 0.17 0.04 0.02 0.14 0.24 0.19 0.29 0.35 0.19 0.16 0.16 0.03 0.01 0.03 0.01 0.02 0.14 0.12 0.05 0.13 0.07 0.06 0.06 0.19 0.72 0.55 0.60 0.55 0.65 0.52 0.47 0.49 0.70 0.95 0.49 0.50 0.77 0.53 0.54 0.42 0.29 1.21
1.38 0.94 1.11 1.07 0.89 0.40 0.12 0.15 0.30 0.38 0.33 0.40 0.30 0.29 0.30 0.57 0.38 0.36 0.24 0.17 0.06 0.02 0.02 0.17 0.01 0.00 0.03 0.01 0.03 0.00 0.01 0.01 0.01 0.05 0.03 0.16 0.19 0.04 0.00 0.01 0.05 0.05 0.03 0.01 0.10 0.14 0.21 0.09 0.13 0.18 0.23 0.35 0.26 0.27 0.15 0.03 0.08 0.06 0.04 0.05 0.06 0.01 0.06 0.09 0.18 0.08 0.15 0.13 0.08 0.15 0.14 0.60 0.73 0.76 0.67 0.38 0.46 0.39 0.54 0.70 0.56 0.55 0.68 0.77 0.66 0.37 0.44 0.58
1.20 1.03 0.30 0.39 0.20 0.50 0.41 0.32 0.28 0.34 0.64 0.56 0.60 0.50 0.76 0.73 0.48 0.26 0.14 0.25 0.01 0.05 0.01 0.02 0.19 0.08 0.04 0.02 0.06 0.02 0.01 0.04 0.01 0.01 0.03 0.13 0.24 0.19 0.04 0.16 0.06 0.01 0.02 0.03 0.03 0.09 0.85 0.28 0.19 0.21 0.08 0.11 0.15 0.28 0.27 0.07 0.13 0.08 0.20 0.06 0.02 0.02 0.05 0.19 0.04 0.21 0.10 0.16 0.28 0.32 0.20 0.17 0.43 0.44 0.37 0.41 0.76 0.75 0.56 0.43 0.49 0.67 0.74 1.04 0.54 0.53 0.54 0.51
1.34 1.06 0.73 0.29 0.47 0.45 0.56 0.81 0.53 0.72 0.63 0.77 0.88 0.75 0.72 0.57 0.41 0.43 0.16 0.03 0.04 0.01 0.03 0.01 0.06 0.03 0.05 0.03 0.08 0.02 0.04 0.05 0.02 0.01 0.08 0.12 0.11 0.25 0.27 0.22 0.37 0.15 0.06 0.08 0.06 0.11 0.33 0.21 0.67 0.21 0.24 0.15 0.07 0.13 0.13 0.16 0.14 0.13 0.09 0.14 0.08 0.06 0.09 0.10 0.02 0.04 0.08 0.09 0.21 0.61 0.49 0.25 0.32 0.28 0.30 0.20 0.21 0.29 0.35 0.57 0.29 0.47 0.69 0.66 0.39 0.30 0.44 0.43
1.59 0.89 1.24 0.27 0.68 0.58 0.56 0.68 0.78 0.86 0.91 0.85 1.03 0.77 0.77 0.52 0.49 0.37 0.28 0.45 0.58 0.17 0.01 0.07 0.17 0.08 0.08 0.02 0.04 0.09 0.07 0.16 0.02 0.04 0.10 0.32 0.13 0.32 0.41 0.31 0.23 0.16 0.17 0.23 0.08 0.03 0.10 0.26 0.33 0.45 0.67 0.49 0.17 0.20 0.24 0.11 0.24 0.11 0.06 0.16 0.11 0.09 0.14 0.13 0.18 0.12 0.13 0.18 0.18 0.14 0.32 0.26 0.36 0.32 0.25 0.21 0.09 0.24 0.19 0.32 0.42 0.47 0.55 0.42 0.44 0.42 0.31 0.41
1.56 1.16 1.21 0.31 0.61 0.54 0.62 0.63 0.91 0.90 1.17 0.90 1.13 0.77 0.77 0.61 0.56 0.47 0.35 0.46 0.23 0.13 0.10 0.33 0.16 0.15 0.23 0.03 0.24 0.16 0.20 0.16 0.10 0.10 0.13 0.07 0.28 0.26 0.43 0.35 0.56 0.23 0.23 0.57 0.39 0.30 0.10 1.12 0.13 0.40 0.50 0.60 0.54 0.33 0.33 0.23 0.23 0.31 0.11 0.16 0.13 0.16 0.12 0.07 0.08 0.18 0.28 0.26 0.28 0.06 0.19 0.32 0.54 0.27 0.26 0.22 0.13 0.08 0.08 0.15 0.17 0.35 0.61 0.38 0.51 0.47 0.48 0.46
1.39 1.32 1.03 0.76 0.44 0.67 0.90 0.61 0.73 0.66 0.75 1.04 1.19 0.89 0.97 0.74 0.83 0.62 0.31 0.35 0.14 0.29 0.23 0.12 0.24 0.22 0.30 0.34 0.10 0.12 0.04 0.07 0.05 0.04 0.15 0.07 0.17 0.24 0.17 0.35 0.03 0.30 0.14 0.29 0.19 0.56 0.07 0.66 0.35 0.70 0.41 0.65 0.30 0.37 0.34 0.30 0.30 0.28 0.19 0.12 0.16 0.28 0.32 0.20 0.18 0.21 0.11 0.39 0.46 0.22 0.25 0.25 0.73 0.36 0.30 0.27 0.20 0.09 0.09 0.10 0.21 0.47 0.38 0.36 0.60 0.35 0.30 0.36
1.04 1.23 0.93 0.74 0.38 0.26 0.47 0.34 0.33 0.37 0.61 0.73 1.16 1.02 0.76 0.52 0.40 0.36 0.23 0.17 0.16 0.19 0.05 0.09 0.11 0.11 0.33 0.39 0.28 0.15 0.06 0.03 0.04 0.10 0.12 0.10 0.09 0.40 0.07 0.14 0.09 0.14 0.28 0.15 0.11 0.27 0.39 0.27 0.25 0.59 0.54 0.55 0.64 0.35 0.50 0.68 0.71 0.67 0.58 0.12 0.09 0.08 0.19 0.32 0.13 0.09 0.18 0.09 0.43 0.50 0.39 0.13 0.27 0.23 0.25 0.43 0.42 0.74 0.63 0.18 0.19 0.14 0.27 0.36 0.22 0.26 0.26 0.38